Weather History for KBIH - September, 2013

Change the Weather History Date:

Tuesday, September 24, 2013

  Actual Average Record
Temperature  
Mean Temperature 65 °F 65 °F  
Max Temperature 87 °F 85 °F 96 °F (2003)
Min Temperature 42 °F 45 °F 31 °F (2006)
Degree Days  
Heating Degree Days 0 2  
Month to date heating degree days 10 23  
Since 1 July heating degree days 10 25  
Cooling Degree Days 0 2  
Month to date cooling degree days 172 109  
Year to date cooling degree days 1337 1086  
Growing Degree Days 14 (Base 50)    
Moisture  
Dew Point 26 °F    
Average Humidity 32    
Maximum Humidity 53    
Minimum Humidity 10    
Precipitation  
Precipitation 0.00 in 0.01 in 0.73 in (1982)
Month to date precipitation T 0.14  
Year to date precipitation 1.11 3.51  
Snow  
Snow 0.00 in 0.00 in - ()
Month to date snowfall 0.0 0.0  
Since 1 July snowfall 0.0 0.0  
Since 1 September snowfall 0.0 0.0  
Snow Depth 0.00 in    
Sea Level Pressure  
Sea Level Pressure 29.80 in    
Wind  
Wind Speed 7 mph (WNW)    
Max Wind Speed 24 mph    
Max Gust Speed 31 mph    
Visibility 10 miles    
Events      
T = Trace of Precipitation, MM = Missing Value Source: NWS Daily Summary

Daily Weather History Graph

Daily Weather History Graph

Search for Another Location

Airport or City:

Trip Planner

Search our weather history database for the weather conditions in past years. The results will help you decide how hot, cold, wet, or windy it might be!

Date:

Astronomy

Sep. 24, 2013 Rise Set
Actual Time 6:43 AM PDT 6:46 PM PDT
Civil Twilight 6:17 AM PDT 7:12 PM PDT
Nautical Twilight 5:46 AM PDT 7:43 PM PDT
Astronomical Twilight 5:15 AM PDT 8:13 PM PDT
Moon 10:14 PM PDT (9/24) 11:55 AM PDT (9/24)
Length of Visible Light 12h 55m
Length of Day
12h 03m
Waning Gibbous, 72% of the Moon is Illuminated
Sep 24
Waning Gibbous
Sep 26
Last Quarter
Oct 4
New
Oct 11
First Quarter
Oct 18
Full

Hourly Weather History & Observations

Time (PDT) Temp. Windchill Dew Point Humidity Pressure Visibility Wind Dir Wind Speed Gust Speed Precip Events Conditions
12:56 AM 52.0 °F - 27.0 °F 38% 29.93 in 10.0 mi NNW 5.8 mph - N/A   Clear
1:56 AM 48.9 °F - 26.1 °F 41% 29.93 in 10.0 mi NW 4.6 mph - N/A   Clear
2:56 AM 52.0 °F - 27.0 °F 38% 29.91 in 10.0 mi NNW 5.8 mph - N/A   Clear
3:56 AM 46.0 °F 43.1 °F 26.1 °F 46% 29.92 in 10.0 mi NW 5.8 mph - N/A   Clear
4:56 AM 44.1 °F 41.5 °F 26.1 °F 49% 29.92 in 10.0 mi North 4.6 mph - N/A   Clear
5:56 AM 43.0 °F 40.3 °F 26.1 °F 51% 29.93 in 10.0 mi NW 4.6 mph - N/A   Clear
6:56 AM 42.1 °F 37.7 °F 26.1 °F 53% 29.93 in 10.0 mi NNW 6.9 mph - N/A   Clear
7:56 AM 53.1 °F - 28.0 °F 38% 29.91 in 10.0 mi Calm Calm - N/A   Clear
8:56 AM 61.0 °F - 28.0 °F 29% 29.91 in 10.0 mi West 3.5 mph - N/A   Clear
9:56 AM 69.1 °F - 27.0 °F 21% 29.89 in 10.0 mi Calm Calm - N/A   Clear
10:56 AM 73.0 °F - 27.0 °F 18% 29.87 in 10.0 mi SE 6.9 mph - N/A   Clear
11:56 AM 78.1 °F - 28.0 °F 16% 29.86 in 10.0 mi SE 8.1 mph - N/A   Clear
12:56 PM 80.1 °F - 27.0 °F 14% 29.82 in 10.0 mi SSE 11.5 mph 16.1 mph N/A   Clear
1:56 PM 82.0 °F - 25.0 °F 12% 29.77 in 10.0 mi SSE 8.1 mph 18.4 mph N/A   Clear
2:56 PM 84.0 °F - 21.9 °F 10% 29.73 in 10.0 mi Variable 5.8 mph - N/A   Clear
3:56 PM 84.9 °F - 23.0 °F 10% 29.70 in 10.0 mi Variable 3.5 mph - N/A   Clear
4:47 PM 86.0 °F - 26.6 °F 12% 29.81 in 10.0 mi WSW 18.4 mph 24.2 mph N/A   Clear
4:56 PM 84.9 °F - 26.1 °F 12% 29.69 in 10.0 mi WSW 15.0 mph 24.2 mph N/A   Clear
5:56 PM 82.0 °F - 24.1 °F 12% 29.70 in 10.0 mi WSW 18.4 mph 26.5 mph N/A   Clear
6:56 PM 78.1 °F - 23.0 °F 13% 29.70 in 10.0 mi WNW 11.5 mph 19.6 mph N/A   Clear
7:56 PM 72.0 °F - 21.9 °F 15% 29.69 in 10.0 mi Calm Calm - N/A   Clear
8:56 PM 68.0 °F - 21.0 °F 17% 29.67 in 10.0 mi Variable 3.5 mph - N/A   Clear
9:56 PM 66.0 °F - 27.0 °F 23% 29.66 in 10.0 mi WNW 6.9 mph - N/A   Clear
10:56 PM 64.9 °F - 27.0 °F 24% 29.63 in 10.0 mi NNW 8.1 mph - N/A   Clear
11:56 PM 60.1 °F - 26.1 °F 27% 29.62 in 10.0 mi Calm Calm - N/A   Clear